Home   Weather   Unalaska   Past weeks

Flag for USA Past Weather in Unalaska, Alaska, USA — Yesterday and Last 2 Weeks

Now
43 °F

Mostly cloudy.


Feels Like: 31 °F
Forecast: 40 / 43 °F
Wind: 37 mph from Northwest

Location: Dutch Harbor

Current Time: Nov 20, 2017 at 3:31:09 am

Latest Report: Nov 20, 2017 at 3:07 am


Visibility: 8 mi

Pressure: 30.23 "Hg

Humidity: 71%

Dew Point: 34 °F

Location of UnalaskaLocation

Past Weather in Unalaska — Graph

°F

Unalaska Temperature Yesterday

Maximum temperature yesterday: 45 °F (at 12:56 pm)
Minimum temperature yesterday: 42 °F (at 4:56 am)
Average temperature yesterday: 43 °F

High & Low Weather Summary for the Past Weeks

 TemperatureHumidityPressure
High55 °F (Nov 18, 4:52 pm)100% (Nov 15, 12:21 am)30.73 "Hg (Nov 15, 12:21 am)
Low36 °F (Nov 6, 7:59 am)55% (Nov 7, 3:56 pm)29.98 "Hg (Nov 18, 7:46 pm)
Average44 °F77%30.40 "Hg
* Reported Nov 5 12:08 am — Nov 19 11:56 pm, Unalaska. Weather by CustomWeather, © 2017

Note: Actual official high and low records may vary slightly from our data, if they occured in-between our weather recording intervals... More about our weather records

Advertising

Unalaska Weather History for the Previous 24 Hours

Scroll right to see more
 ConditionsComfort  
Time TempWeatherWind HumidityBarometerVisibility
11:56 pm
Sun, Nov 19
43 °FOvercast.41 mph71%30.23 "Hg9 mi
9:56 pm44 °FMostly cloudy.37 mph71%30.24 "Hg9 mi
8:56 pm44 °FOvercast.40 mph68%30.26 "Hg9 mi
6:56 pm45 °FMostly cloudy.38 mph65%30.25 "Hg9 mi
2:56 pm45 °FMostly cloudy.44 mph60%30.24 "Hg7 mi
1:56 pm43 °FOvercast.47 mph61%30.23 "Hg10 mi
12:56 pm45 °FMostly cloudy.43 mph60%30.27 "Hg8 mi
11:56 am44 °FMostly cloudy.36 mph63%30.28 "Hg8 mi
10:52 am43 °FOvercast.32 mph61%30.28 "Hg10 mi
9:56 am43 °FOvercast.33 mph60%30.27 "Hg10 mi
8:56 am43 °FMostly cloudy.31 mph60%30.27 "Hg10 mi
7:53 am43 °FLight rain. Fog.39 mph61%30.25 "Hg10 mi
7:20 am43 °FLight rain. Fog.39 mph61%30.26 "Hg6 mi
6:48 am43 °FMostly cloudy.36 mph66%30.23 "Hg10 mi
5:56 am43 °FLight rain. Overcast.35 mph62%30.21 "Hg9 mi
4:56 am42 °FLight rain. Mostly cloudy.38 mph65%30.23 "Hg10 mi
Weather by CustomWeather, © 2017

See weather overview